Weather History for KARV - February, 2013

Change the Weather History Date:

Friday, February 15, 2013

  Actual Average (KRHI) Record (KRHI)
Temperature  
Mean Temperature 8 °F 16 °F  
Max Temperature 17 °F 26 °F 50 °F (1931)
Min Temperature 0 °F 6 °F -29 °F (1943)
Degree Days  
Heating Degree Days 56 49  
Month to date heating degree days 758  
Since 1 July heating degree days 6019  
Cooling Degree Days 0 0  
Month to date cooling degree days 0  
Year to date cooling degree days 0  
Moisture  
Dew Point 5 °F    
Average Humidity 76    
Maximum Humidity 86    
Minimum Humidity 58    
Precipitation  
Precipitation 0.00 in 0.04 in 0.83 in (1945)
Month to date precipitation 0.47  
Year to date precipitation 1.58  
Snow  
Snow 0.00 in - 11.00 in (1967)
Month to date snowfall  
Since 1 July snowfall  
Snow Depth -    
Sea Level Pressure  
Sea Level Pressure 30.05 in    
Wind  
Wind Speed 5 mph (NW)    
Max Wind Speed 14 mph    
Max Gust Speed 21 mph    
Visibility 9 miles    
Events Snow    
T = Trace of Precipitation, MM = Missing Value Source: NWS Daily Summary

Daily Weather History Graph

Daily Weather History Graph

Search for Another Location

Airport or City:

Trip Planner

Search our weather history database for the weather conditions in past years. The results will help you decide how hot, cold, wet, or windy it might be!

Date:

Astronomy

Feb. 15, 2013 Rise Set
Actual Time 7:00 AM CST 5:25 PM CST
Civil Twilight 6:30 AM CST 5:56 PM CST
Nautical Twilight 5:55 AM CST 6:31 PM CST
Astronomical Twilight 5:20 AM CST 7:05 PM CST
Moon 9:16 AM CST (2/15) 11:49 PM CST (2/15)
Length of Visible Light 11h 26m
Length of Day
10h 24m
Waxing Crescent, 30% of the Moon is Illuminated
Feb 15
Waxing Crescent
Feb 17
First Quarter
Feb 25
Full
Mar 4
Last Quarter
Mar 11
New

Hourly Weather History & Observations

Time (CST) Temp. Windchill Dew Point Humidity Pressure Visibility Wind Dir Wind Speed Gust Speed Precip Events Conditions
12:15 AM 17.6 °F 10.7 °F 12.2 °F 79% 29.97 in 10.0 mi NNW 4.6 mph - N/A Snow Light Snow
12:35 AM 17.6 °F 10.7 °F 12.2 °F 79% 29.97 in 10.0 mi NW 4.6 mph - N/A Snow Light Snow
12:55 AM 14.0 °F 8.2 °F 10.4 °F 86% 29.97 in 10.0 mi WNW 3.5 mph - N/A Snow Light Snow
1:15 AM 14.0 °F 6.5 °F 10.4 °F 86% 29.97 in 10.0 mi WNW 4.6 mph - N/A Snow Light Snow
1:55 AM 14.0 °F 8.2 °F 8.6 °F 79% 29.98 in 10.0 mi WNW 3.5 mph - N/A Snow Light Snow
2:15 AM 12.2 °F 6.1 °F 8.6 °F 85% 29.98 in 10.0 mi WNW 3.5 mph - N/A Snow Light Snow
2:35 AM 12.2 °F 2.9 °F 8.6 °F 85% 29.98 in 7.0 mi WNW 5.8 mph - N/A Snow Light Snow
2:55 AM 12.2 °F 4.3 °F 8.6 °F 85% 29.98 in 7.0 mi WNW 4.6 mph - N/A Snow Light Snow
3:15 AM 12.2 °F 6.1 °F 8.6 °F 85% 29.98 in 7.0 mi WNW 3.5 mph - N/A Snow Light Snow
3:35 AM 12.2 °F 6.1 °F 8.6 °F 85% 29.98 in 3.0 mi WNW 3.5 mph - N/A Snow Light Snow
4:15 AM 10.4 °F 2.2 °F 5.0 °F 79% 30.00 in 4.0 mi WNW 4.6 mph - N/A Snow Light Snow
4:35 AM 10.4 °F 2.2 °F 5.0 °F 79% 30.00 in 3.0 mi NW 4.6 mph - N/A Snow Light Snow
4:55 AM 12.2 °F 4.3 °F 8.6 °F 85% 30.01 in 3.0 mi West 4.6 mph - N/A Snow Light Snow
5:15 AM 12.2 °F 4.3 °F 8.6 °F 85% 30.01 in 7.0 mi WNW 4.6 mph - N/A Snow Light Snow
5:35 AM 12.2 °F 4.3 °F 8.6 °F 85% 30.01 in 10.0 mi WNW 4.6 mph - N/A Snow Light Snow
5:55 AM 12.2 °F 4.3 °F 8.6 °F 85% 30.01 in 10.0 mi WNW 4.6 mph - N/A Snow Light Snow
6:15 AM 12.2 °F 4.3 °F 8.6 °F 85% 30.02 in 7.0 mi WNW 4.6 mph - N/A Snow Light Snow
6:35 AM 12.2 °F 6.1 °F 8.6 °F 85% 30.02 in 10.0 mi West 3.5 mph - N/A   Overcast
6:55 AM 12.2 °F 4.3 °F 8.6 °F 85% 30.02 in 10.0 mi WNW 4.6 mph - N/A   Overcast
7:15 AM 12.2 °F 6.1 °F 8.6 °F 85% 30.03 in 10.0 mi NW 3.5 mph - N/A   Scattered Clouds
7:35 AM 10.4 °F 4.0 °F 5.0 °F 79% 30.03 in 10.0 mi WNW 3.5 mph - N/A   Clear
7:55 AM 12.2 °F 1.7 °F 8.6 °F 85% 30.04 in 10.0 mi WNW 6.9 mph - N/A   Mostly Cloudy
8:15 AM 12.2 °F 0.7 °F 8.6 °F 85% 30.05 in 10.0 mi WNW 8.1 mph - N/A   Scattered Clouds
8:35 AM 12.2 °F 1.7 °F 6.8 °F 79% 30.05 in 10.0 mi WNW 6.9 mph - N/A   Scattered Clouds
8:55 AM 12.2 °F 1.7 °F 6.8 °F 79% 30.06 in 10.0 mi NW 6.9 mph - N/A   Scattered Clouds
9:15 AM 14.0 °F 2.9 °F 6.8 °F 73% 30.06 in 10.0 mi NW 8.1 mph - N/A   Clear
9:35 AM 14.0 °F 2.0 °F 8.6 °F 79% 30.06 in 4.0 mi WNW 9.2 mph - N/A Snow Light Snow
9:55 AM 14.0 °F 3.9 °F 6.8 °F 73% 30.06 in 3.0 mi NW 6.9 mph - N/A Snow Light Snow
10:15 AM 15.8 °F 1.4 °F 8.6 °F 73% 30.06 in 10.0 mi NNW 13.8 mph 20.7 mph N/A   Mostly Cloudy
10:35 AM 17.6 °F 5.7 °F 8.6 °F 68% 30.06 in 10.0 mi NNW 10.4 mph 17.3 mph N/A   Mostly Cloudy
10:55 AM 15.8 °F 2.1 °F 5.0 °F 62% 30.06 in 10.0 mi NNW 12.7 mph 19.6 mph N/A   Scattered Clouds
11:15 AM 17.6 °F 5.0 °F 5.0 °F 58% 30.06 in 10.0 mi NW 11.5 mph 17.3 mph N/A   Scattered Clouds
11:55 AM 17.6 °F 5.7 °F 5.0 °F 58% 30.06 in 10.0 mi NNW 10.4 mph - N/A   Mostly Cloudy
12:15 PM 14.0 °F 2.0 °F 3.2 °F 62% 30.06 in 10.0 mi NW 9.2 mph - N/A   Mostly Cloudy
12:35 PM 17.6 °F 4.3 °F 5.0 °F 58% 30.05 in 7.0 mi North 12.7 mph 17.3 mph N/A   Overcast
12:55 PM 14.0 °F 1.2 °F 3.2 °F 62% 30.05 in 10.0 mi NW 10.4 mph 16.1 mph N/A   Overcast
1:15 PM 17.6 °F 5.0 °F 5.0 °F 58% 30.05 in 10.0 mi NNW 11.5 mph - N/A   Overcast
1:35 PM 14.0 °F 5.1 °F 5.0 °F 67% 30.05 in 7.0 mi NW 5.8 mph - N/A   Mostly Cloudy
1:55 PM 14.0 °F 1.2 °F 3.2 °F 62% 30.05 in 10.0 mi NNW 10.4 mph - N/A   Mostly Cloudy
2:15 PM 14.0 °F -0.8 °F 3.2 °F 62% 30.05 in 10.0 mi North 13.8 mph - N/A   Overcast
2:35 PM 14.0 °F -0.2 °F 5.0 °F 67% 30.06 in 3.0 mi NW 12.7 mph 17.3 mph N/A   Haze
2:55 PM 14.0 °F 0.5 °F 3.2 °F 62% 30.07 in 10.0 mi NW 11.5 mph - N/A   Overcast
3:15 PM 14.0 °F 2.0 °F 3.2 °F 62% 30.07 in 5.0 mi North 9.2 mph - N/A   Haze
3:35 PM 12.2 °F -1.8 °F 3.2 °F 67% 30.08 in 2.5 mi North 11.5 mph - N/A Snow Light Snow
3:55 PM 12.2 °F -0.2 °F 3.2 °F 67% 30.09 in 5.0 mi North 9.2 mph - N/A   Haze
4:15 PM 12.2 °F -1.0 °F 3.2 °F 67% 30.09 in 5.0 mi North 10.4 mph - N/A   Haze
4:35 PM 12.2 °F -1.8 °F 3.2 °F 67% 30.10 in 4.0 mi North 11.5 mph - N/A   Haze
4:55 PM 12.2 °F 0.7 °F 3.2 °F 67% 30.10 in 10.0 mi North 8.1 mph - N/A   Mostly Cloudy
5:15 PM 12.2 °F 1.7 °F 1.4 °F 62% 30.10 in 10.0 mi NNW 6.9 mph 10.4 mph N/A   Scattered Clouds
5:35 PM 10.4 °F 4.0 °F 1.4 °F 67% 30.10 in 10.0 mi NW 3.5 mph - N/A   Clear
5:55 PM 10.4 °F 4.0 °F -0.4 °F 62% 30.11 in 10.0 mi NW 3.5 mph - N/A   Scattered Clouds
6:15 PM 10.4 °F - 1.4 °F 67% 30.11 in 10.0 mi Calm Calm - N/A   Clear
6:35 PM 5.0 °F - -0.4 °F 78% 30.11 in 10.0 mi Calm Calm - N/A   Clear
6:55 PM 5.0 °F - -0.4 °F 78% 30.11 in 10.0 mi Calm Calm - N/A   Clear
7:15 PM 3.2 °F - -0.4 °F 85% 30.10 in 10.0 mi Calm Calm - N/A   Clear
7:35 PM 1.4 °F - -2.2 °F 85% 30.10 in 10.0 mi Calm Calm - N/A   Scattered Clouds
7:55 PM 1.4 °F - -2.2 °F 85% 30.10 in 10.0 mi Calm Calm - N/A   Scattered Clouds
8:15 PM -0.4 °F - -4.0 °F 85% 30.10 in 10.0 mi Calm Calm - N/A   Scattered Clouds
8:35 PM -0.4 °F -8.3 °F -4.0 °F 85% 30.10 in 7.0 mi West 3.5 mph - N/A   Overcast
8:55 PM 5.0 °F -2.1 °F 1.4 °F 85% 30.10 in 10.0 mi WNW 3.5 mph - N/A   Overcast
9:15 PM 5.0 °F - 1.4 °F 85% 30.10 in 10.0 mi Calm Calm - N/A   Overcast
9:35 PM 5.0 °F -2.1 °F 1.4 °F 85% 30.09 in 10.0 mi NW 3.5 mph - N/A   Overcast
9:55 PM 5.0 °F -2.1 °F 1.4 °F 85% 30.09 in 10.0 mi WNW 3.5 mph - N/A   Overcast
10:15 PM 5.0 °F -4.1 °F 1.4 °F 85% 30.08 in 10.0 mi NW 4.6 mph - N/A   Scattered Clouds
10:35 PM 5.0 °F -2.1 °F 1.4 °F 85% 30.08 in 10.0 mi NW 3.5 mph - N/A   Mostly Cloudy
10:55 PM 5.0 °F -2.1 °F -0.4 °F 78% 30.08 in 10.0 mi WNW 3.5 mph - N/A   Scattered Clouds
11:15 PM 5.0 °F - 1.4 °F 85% 30.08 in 10.0 mi Calm Calm - N/A Snow Light Snow
11:35 PM 3.2 °F - -0.4 °F 85% 30.07 in 10.0 mi Calm Calm - N/A   Clear
11:55 PM 3.2 °F - -0.4 °F 85% 30.07 in 10.0 mi Calm Calm - N/A   Clear